Weather History for KNKT - December, 2013

Change the Weather History Date:

Monday, December 9, 2013

  Actual Average Record
Temperature  
Mean Temperature 58 °F -  
Max Temperature 72 °F 58 °F 73 °F (2007)
Min Temperature 43 °F 39 °F 17 °F (2006)
Degree Days  
Heating Degree Days 8    
Growing Degree Days 8 (Base 50)    
Moisture  
Dew Point 54 °F    
Average Humidity 93    
Maximum Humidity 100    
Minimum Humidity 75    
Precipitation  
Precipitation 0.02 in - - ()
Sea Level Pressure  
Sea Level Pressure 30.15 in    
Wind  
Wind Speed 4 mph (West)    
Max Wind Speed 17 mph    
Max Gust Speed 22 mph    
Visibility 4 miles    
Events Fog , Rain    
Averages and records for this station are not official NWS values.
T = Trace of Precipitation, MM = Missing Value Source: NWS Daily Summary

Daily Weather History Graph

Daily Weather History Graph

Search for Another Location

Airport or City:

Trip Planner

Search our weather history database for the weather conditions in past years. The results will help you decide how hot, cold, wet, or windy it might be!

Date:

Astronomy

Dec. 09, 2013 Rise Set
Actual Time 7:03 AM EST 4:56 PM EST
Civil Twilight 6:35 AM EST 5:24 PM EST
Nautical Twilight 6:04 AM EST 5:55 PM EST
Astronomical Twilight 5:33 AM EST 6:26 PM EST
Moon 12:09 PM EST (12/9) No Moon Set
Length of Visible Light 10h 48m
Length of Day
9h 52m
Waxing Crescent, 51% of the Moon is Illuminated
Dec 9
Waxing Crescent
Dec 17
Full
Dec 25
Last Quarter
Jan 1
New
Jan 7
First Quarter

Hourly Weather History & Observations

Time (EST) Temp. Windchill Dew Point Humidity Pressure Visibility Wind Dir Wind Speed Gust Speed Precip Events Conditions
12:54 AM 44.1 °F 40.1 °F 42.1 °F 93% 30.25 in 6.0 mi NW 6.9 mph - N/A   Overcast
1:54 AM 43.0 °F 39.5 °F 41.0 °F 93% 30.25 in 6.0 mi WNW 5.8 mph - 0.01 in   Overcast
2:10 AM 43.0 °F 39.5 °F 41.0 °F 93% 30.25 in 10.0 mi NW 5.8 mph - N/A   Overcast
2:54 AM 43.0 °F 40.3 °F 41.0 °F 93% 30.23 in 4.0 mi NNW 4.6 mph - 0.01 in Rain Light Rain
3:05 AM 43.0 °F 40.3 °F 41.0 °F 93% 30.24 in 10.0 mi NNW 4.6 mph - 0.00 in   Overcast
3:54 AM 44.1 °F 42.5 °F 41.0 °F 89% 30.22 in 10.0 mi NW 3.5 mph - 0.00 in   Overcast
4:54 AM 44.1 °F - 41.0 °F 89% 30.21 in 10.0 mi Calm Calm - N/A   Overcast
5:54 AM 45.0 °F 41.8 °F 42.1 °F 90% 30.21 in 10.0 mi NNW 5.8 mph - N/A   Overcast
6:49 AM 44.6 °F 42.2 °F 42.8 °F 93% 30.22 in 3.0 mi North 4.6 mph - N/A   Overcast
6:54 AM 44.1 °F 42.5 °F 42.1 °F 93% 30.21 in 3.0 mi NW 3.5 mph - N/A   Overcast
7:05 AM 44.1 °F - 42.1 °F 93% 30.21 in 2.5 mi Calm Calm - N/A   Overcast
7:13 AM 44.1 °F - 43.0 °F 96% 30.21 in 4.0 mi Calm Calm - N/A   Overcast
7:49 AM 44.6 °F - 42.8 °F 93% 30.21 in 0.5 mi Calm Calm - N/A   Overcast
7:54 AM 45.0 °F - 43.0 °F 93% 30.20 in 0.5 mi Calm Calm - N/A   Overcast
8:09 AM 45.0 °F - 44.1 °F 97% 30.21 in 0.2 mi Calm Calm - N/A Fog Fog
8:54 AM 46.0 °F - 45.0 °F 96% 30.21 in 0.2 mi Calm Calm - N/A Fog Fog
9:40 AM 48.9 °F - 46.9 °F 93% 30.21 in 0.2 mi SSE 4.6 mph - N/A Fog Fog
9:54 AM 48.9 °F - 48.0 °F 97% 30.20 in 0.2 mi Calm Calm - N/A Fog Fog
10:26 AM 51.1 °F - 50.0 °F 96% 30.20 in 1.0 mi Calm Calm - N/A   Overcast
10:36 AM 52.0 °F - 51.1 °F 97% 30.19 in 2.0 mi Calm Calm - N/A   Overcast
10:46 AM 52.0 °F - 51.1 °F 97% 30.19 in 2.0 mi SSW 4.6 mph - N/A   Overcast
10:54 AM 54.0 °F - 52.0 °F 93% 30.18 in 8.0 mi SSW 3.5 mph - N/A   Overcast
11:04 AM 53.1 °F - 52.0 °F 96% 30.19 in 9.0 mi WSW 3.5 mph - N/A   Overcast
11:54 AM 60.1 °F - 55.0 °F 83% 30.14 in 10.0 mi Variable 3.5 mph - N/A   Overcast
12:54 PM 63.0 °F - 59.0 °F 87% 30.13 in 10.0 mi WSW 6.9 mph - N/A   Overcast
1:45 PM 66.9 °F - 62.1 °F 84% 30.11 in 10.0 mi South 9.2 mph - N/A   Mostly Cloudy
1:54 PM 69.1 °F - 62.1 °F 78% 30.09 in 10.0 mi SSW 8.1 mph - N/A   Mostly Cloudy
2:54 PM 72.0 °F - 64.0 °F 76% 30.09 in 10.0 mi SW 17.3 mph 21.9 mph N/A   Mostly Cloudy
3:54 PM 71.1 °F - 63.0 °F 75% 30.09 in 10.0 mi SW 11.5 mph - N/A   Scattered Clouds
4:54 PM 66.9 °F - 63.0 °F 87% 30.09 in 10.0 mi WSW 8.1 mph - N/A   Mostly Cloudy
5:54 PM 64.9 °F - 62.1 °F 90% 30.09 in 10.0 mi SSW 5.8 mph - N/A   Partly Cloudy
6:54 PM 63.0 °F - 61.0 °F 93% 30.10 in 7.0 mi SSW 4.6 mph - N/A   Clear
7:31 PM 60.1 °F - 59.0 °F 96% 30.12 in 1.8 mi West 3.5 mph - N/A   Partly Cloudy
7:40 PM 62.1 °F - 60.1 °F 93% 30.13 in 4.0 mi WSW 3.5 mph - N/A   Mostly Cloudy
7:54 PM 60.1 °F - 59.0 °F 96% 30.12 in 4.0 mi Calm Calm - N/A   Overcast
7:58 PM 60.1 °F - 59.0 °F 96% 30.13 in 0.5 mi Calm Calm - N/A Fog Fog
8:07 PM 61.0 °F - 59.0 °F 93% 30.13 in 0.8 mi West 3.5 mph - N/A   Overcast
8:12 PM 61.0 °F - 59.0 °F 93% 30.13 in 2.0 mi West 3.5 mph - N/A   Overcast
8:19 PM 62.1 °F - 60.1 °F 93% 30.13 in 0.8 mi West 4.6 mph - N/A   Overcast
8:28 PM 62.1 °F - 60.1 °F 93% 30.13 in 0.8 mi West 4.6 mph - N/A   Overcast
8:54 PM 61.0 °F - 60.1 °F 97% 30.12 in 0.8 mi West 5.8 mph - N/A   Overcast
9:01 PM 61.0 °F - 60.1 °F 97% 30.12 in 1.5 mi West 4.6 mph - N/A   Overcast
9:15 PM 61.0 °F - 60.1 °F 97% 30.12 in 1.5 mi West 5.8 mph - N/A   Overcast
9:24 PM 61.0 °F - 60.1 °F 97% 30.12 in 0.8 mi West 5.8 mph - N/A   Overcast
9:37 PM 61.0 °F - 60.1 °F 97% 30.12 in 1.0 mi WNW 5.8 mph - N/A   Mist
9:47 PM 61.0 °F - 60.1 °F 97% 30.11 in 0.8 mi WNW 3.5 mph - N/A   Mist
9:54 PM 61.0 °F - 60.1 °F 97% 30.10 in 0.5 mi West 3.5 mph - N/A Fog Fog
10:38 PM 61.0 °F - 60.1 °F 97% 30.11 in 0.5 mi Calm Calm - N/A Fog Fog
10:52 PM 60.8 °F - 60.8 °F 100% 30.11 in 1.0 mi Calm Calm - N/A   Overcast
10:54 PM 61.0 °F - 60.1 °F 97% 30.10 in 1.2 mi Calm Calm - N/A   Overcast
11:11 PM 61.0 °F - 60.1 °F 97% 30.09 in 0.8 mi SSE 4.6 mph - N/A   Overcast
11:36 PM 61.0 °F - 60.1 °F 97% 30.10 in 0.8 mi Calm Calm - N/A   Overcast
11:54 PM 61.0 °F - 60.1 °F 97% 30.09 in 0.8 mi West 4.6 mph - N/A   Overcast
11:57 PM 61.0 °F - 60.1 °F 97% 30.10 in 1.0 mi West 4.6 mph - N/A   Mist